Hourly Data Report for September 14, 2016

SHEARWATER RCS
NOVA SCOTIA

44°37'47.000" N
63°30'48.000" W
24.00 m
8205092
71264
AAW

Download Data

Hourly Data (September 2016)
Hourly Data Report for September 14, 2016
TIME Temp Definition
°C
Dew Point Definition
°C
Rel Hum Definition
%
Wind Dir Definition
10's deg

Wind Spd Definition
km/h
Visibility Definition
km
Stn Press Definition
kPa
Hmdx Definition


Wind Chill Definition


Weather Definition


00:00 15.6 14.0 90 21 13   101.59     LegendNANA
01:00 15.3 13.7 91 23 14   101.59     LegendNANA
02:00 15.1 13.4 89 23 15   101.59     LegendNANA
03:00 15.1 13.4 90 22 8   101.57     LegendNANA
04:00 15.0 13.5 91 22 11   101.51     LegendNANA
05:00 15.3 13.8 91 22 12   101.52     LegendNANA
06:00 14.9 13.3 90 20 11   101.49     LegendNANA
07:00 15.4 13.2 87 21 9   101.48     LegendNANA
08:00 17.2 13.8 80 22 17   101.43     LegendNANA
09:00 17.9 14.5 80 23 15   101.43     LegendNANA
10:00 18.6 15.0 80 22 17   101.39     LegendNANA
11:00 20.5 15.2 72 22 23   101.34 25   LegendNANA
12:00 21.3 15.4 69 21 22   101.26 26   LegendNANA
13:00 22.5 15.4 64 21 20   101.17 27   LegendNANA
14:00 21.4 14.4 65 20 26   101.09 25   LegendNANA
15:00 22.3 15.0 63 21 19   101.01 26   LegendNANA
16:00 21.8 14.4 63 21 21   100.93 25   LegendNANA
17:00 20.2 14.4 69 21 24   100.88     LegendNANA
18:00 18.5 14.5 77 22 25   100.84     LegendNANA
19:00 18.2 14.9 81 22 21   100.83     LegendNANA
20:00 18.0 15.0 83 23 19   100.86     LegendNANA
21:00 18.2 15.3 83 24 11   100.85     LegendNANA
22:00 17.4 16.0 91 29 6   100.88     LegendNANA
23:00 17.4 16.1 92 31 14   100.93     LegendNANA

Notes on Data Quality.

Legend

  • E = Estimated
  • M = Missing
  • NA = Not Available*
  • [empty] = Indicates an unobserved value
Date modified: